User: anonymous   Login
Location: Strawberry
(45.6646°N, 111.9596°W)
Time: 17:06:10
(UTC+00:00)
Language:

AO-73 - Orbit

View from above orbital plane
View from above orbital plane
View from above satellite
View from above satellite

Ground track
Ground track

The orbit data is extracted from the following two-line orbital elements,

1 39444U 13066AE  22333.46955717  .00002090  00000-0  24905-3 0  9991
2 39444  97.6470 300.2089 0054505 209.1976 150.6189 14.84297185485998
Epoch (UTC): 29 November 2022 11:16:09
Eccentricity: 0.0054505
inclination: 97.6470°
perigee height: 577 km
apogee height: 654 km
right ascension of ascending node: 300.2089°
argument of perigee: 209.1976°
revolutions per day: 14.84297185
mean anomaly at epoch: 150.6189°
orbit number at epoch: 48599

The dashed part of the orbit path shows where the satellite is in the earth's shadow,  

DLR